sat.trackr.live / text

‹ back to catalog

STARLINK-2194

NORAD 47771 · 2021-017BB

PAYLOAD ACTIVE UNKNOWN

§ Identity

Operator
Country
US
Launch date
2021-03-04
Launch site
AFETR
Launch vehicle
Mass (kg)
RCS (m²)

Purposes: comms

External: N2YO · Heavens-Above · Gunter

§ Orbital elements

Epoch: 2026-05-24T12:52:32.575296Z

Period
94.01 min
Inclination
53.1590°
Eccentricity
0.0001145
Mean motion
15.31717829 rev/d
Perigee alt
469.9 km
Apogee alt
471.5 km
Semi-major
6,848.8 km
B*
7.6342e-5
RAAN
211.0865°
Arg perigee
90.2419°
Mean anomaly
269.8714°
Rev number
28,949

§ Raw data

STARLINK-21941 47771U 21017BB  26144.53648814  .00002006  00000+0  76342-4 0  99962 47771  53.1590 211.0865 0001145  90.2419 269.8714 15.31717829289493

JSON: /api/v1/satellites/47771 · /tle

For live sub-satellite position, see the globe view (requires WebGL).

§ Visibility from observer

Set your observer location to see the next 7 days of passes ≥ 10°. The values pass through the URL so the page stays shareable.

No JS? Fill the form by hand. The geolocation button needs JavaScript.